[[{"header":{"parameterUnit":"m.s-1","parameterCategory":1,"la1":30.2991,"la2":30.254,"lo1":-89.0895,"lo2":-89.0444,"dy":0.0017,"dx":0.0017,"nx":28,"ny":28,"refTime":"2025-11-23T09:00:00:Z","depth":0,"parameterNumber":2,"parameterNumberName":"U-component_of_WINDS"},"data":[0,0,0,0,0,0,0,0,0,0,0,0,0,0,0,0,0,0,0,0,0,0,0,0,0,0,0,0,0,0,0,0,0,0,0,0,0,0,0,0,0,0,0,0,0,0,0,0,0,0,0,0,0,0,0,0,0,0,-0.7742,-0.7742,0,-0.7733,-0.7733,-0.7733,-0.7711,-0.771,-0.771,-0.7709,-0.7701,-0.7701,-0.7702,0,0,0,0,0,0,0,0,0,0,0,0,0,-0.774,-0.774,-0.7742,-0.7742,-0.7742,-0.7733,-0.7733,-0.7733,-0.7711,-0.771,-0.771,-0.7709,-0.7701,-0.7701,-0.7702,0,0,0,0,0,0,0,0,0,0,0,0,0,-0.7737,-0.774,-0.7742,-0.773,-0.7728,-0.7733,-0.7733,-0.7733,-0.7711,-0.771,-0.7709,-0.7709,-0.7701,-0.7701,-0.7702,-0.7718,0,0,-0.7703,-0.7703,0,0,0,0,0,0,0,0,-0.7737,-0.7737,-0.7732,-0.773,-0.7729,-0.7722,-0.7729,-0.7728,-0.7711,-0.7718,-0.7709,-0.7708,-0.7709,-0.7709,-0.7709,-0.7718,-0.7718,-0.7703,-0.7703,-0.7703,-0.7703,0,0,0,0,0,0,0,-0.7737,-0.7737,-0.7739,-0.7732,-0.773,-0.7725,-0.7723,-0.7729,-0.7717,-0.7717,-0.7715,-0.7715,-0.7708,-0.7708,-0.7708,-0.7717,-0.7703,-0.7703,-0.7703,-0.7703,-0.774,-0.7741,0,0,0,0,0,0,-0.7739,-0.7738,-0.7739,-0.7738,-0.7731,-0.7725,-0.7724,-0.7725,-0.7717,-0.7715,-0.7715,-0.7714,-0.7708,-0.7708,-0.7708,-0.7727,-0.7703,-0.7703,-0.7704,-0.7739,-0.774,-0.7741,0,0,0,0,0,0,-0.7739,-0.774,-0.7739,-0.7738,-0.7737,-0.7726,-0.7728,-0.7725,-0.7726,-0.7716,-0.7714,-0.7717,-0.7707,-0.7707,-0.7716,-0.7726,-0.7704,-0.7704,-0.7739,-0.774,-0.7741,-0.7765,0,0,0,0,0,0,-0.7739,-0.774,-0.7746,-0.7738,-0.7737,-0.7747,-0.7728,-0.7726,-0.7726,-0.7724,-0.7717,-0.7716,-0.7707,-0.7715,-0.7716,-0.7726,-0.7704,-0.7738,-0.7739,-0.774,-0.7763,-0.7767,-0.777,0,0,0,0,0,-0.7739,-0.7753,-0.7746,-0.7747,-0.7745,-0.7748,-0.7748,-0.7737,-0.7727,-0.7733,-0.7727,-0.7716,-0.7725,-0.7716,-0.7717,-0.7728,-0.7737,-0.7739,-0.774,-0.7762,-0.7766,-0.777,0,0,0,0,0,0,-0.7763,-0.7752,-0.7744,-0.7756,-0.7753,-0.7744,-0.7752,-0.7742,-0.7742,-0.774,-0.7727,-0.7726,-0.7736,-0.7733,-0.7723,-0.7743,-0.7729,-0.7731,-0.7745,-0.7749,-0.7753,-0.7754,-0.7705,0,0,0,0,0,-0.777,-0.7773,-0.7763,-0.7774,-0.7773,-0.7763,-0.7764,-0.7756,-0.7752,-0.7751,-0.7746,-0.7743,-0.7745,-0.7747,-0.7748,-0.7763,-0.7761,-0.777,-0.7773,-0.7776,-0.7778,-0.7786,-0.779,-0.7747,-0.7747,-0.7747,0,0,-0.7783,-0.7778,-0.7781,-0.7779,-0.7776,-0.778,-0.7762,-0.7767,-0.777,-0.7752,-0.776,-0.7756,-0.7752,-0.7763,-0.7768,-0.7761,-0.779,-0.7778,-0.7781,-0.7781,-0.7788,-0.7792,-0.7796,-0.7748,-0.7748,-0.7748,0,0,-0.781,-0.7806,-0.7815,-0.7812,-0.7808,-0.7801,-0.7803,-0.7795,-0.7792,-0.7799,-0.7786,-0.7789,-0.7793,-0.7791,-0.7791,-0.7817,-0.7807,-0.7818,-0.7835,-0.7843,-0.7846,-0.7849,-0.7859,-0.7862,-0.7819,-0.7819,-0.782,0,-0.7828,-0.7833,-0.7821,-0.7827,-0.7827,-0.781,-0.7819,-0.7817,-0.7814,-0.7814,-0.7806,-0.781,-0.7807,-0.7818,-0.7824,-0.7824,-0.7826,-0.7818,-0.7846,-0.7849,-0.7852,-0.7861,-0.7865,-0.7821,-0.7821,-0.7821,-0.782,0,-0.7856,-0.786,-0.7867,-0.7864,-0.7865,-0.7872,-0.7861,-0.7863,-0.7855,-0.7849,-0.7857,-0.7852,-0.7852,-0.7854,-0.7846,-0.7863,-0.7859,-0.7849,-0.7834,-0.7858,-0.7866,-0.7869,-0.7823,-0.7822,-0.7822,-0.7822,0,0,-0.7898,-0.7887,-0.789,-0.7889,-0.7882,-0.7885,-0.7892,-0.7892,-0.7894,-0.7892,-0.7898,-0.7901,-0.7892,-0.7891,-0.7883,-0.7889,-0.7911,-0.7878,-0.7878,-0.7885,-0.793,-0.7938,-0.7942,-0.7904,-0.7904,-0.7905,-0.7931,0,-0.7924,-0.7935,-0.7924,-0.7937,-0.7941,-0.7925,-0.7931,-0.7927,-0.7922,-0.7924,-0.7918,-0.7921,-0.7908,-0.7907,-0.7913,-0.7907,-0.792,-0.7905,-0.7909,-0.7909,-0.7911,-0.7947,-0.7955,-0.798,-0.7934,-0.7934,-0.7935,0,-0.7956,-0.7955,-0.7968,-0.7961,-0.7962,-0.7967,-0.7967,-0.7969,-0.7965,-0.796,-0.796,-0.7949,-0.7956,-0.7941,-0.795,-0.794,-0.7941,-0.7939,-0.7939,-0.794,-0.7924,-0.7949,-0.7988,-0.7992,-0.794,-0.7939,-0.7939,0,-0.7986,-0.7988,-0.7996,-0.7995,-0.7986,-0.7991,-0.7988,-0.7983,-0.7983,-0.7983,-0.7983,-0.7983,-0.7983,-0.7984,-0.7974,-0.7964,-0.7984,-0.7969,-0.7981,-0.7981,-0.7986,-0.7986,-0.8026,-0.7986,-0.7986,-0.7986,-0.7986,0,-0.8016,-0.8025,-0.8009,-0.8015,-0.8024,-0.8012,-0.8022,-0.8017,-0.8013,-0.8017,-0.8003,-0.8007,-0.7994,-0.7997,-0.7989,-0.7998,-0.7998,-0.7994,-0.7992,-0.7996,-0.7997,-0.7997,-0.7995,-0.7987,-0.7987,-0.7986,-0.7986,0,-0.8051,-0.8041,-0.805,-0.8041,-0.8039,-0.8046,-0.8039,-0.8043,-0.8036,-0.8042,-0.8043,-0.8032,-0.8035,-0.8025,-0.8026,-0.8021,-0.8034,-0.8028,-0.8035,-0.8034,-0.8046,-0.8046,-0.8089,-0.8094,-0.805,-0.805,-0.8051,0,-0.8072,-0.8078,-0.807,-0.8072,-0.8069,-0.8072,-0.8072,-0.806,-0.8061,-0.8057,-0.8062,-0.8064,-0.8064,-0.8069,-0.8062,-0.8063,-0.8058,-0.8073,-0.8058,-0.8061,-0.8059,-0.8059,-0.8059,-0.8076,-0.8077,-0.8077,-0.8078,0,-0.8109,-0.8104,-0.8105,-0.8104,-0.8105,-0.8104,-0.8102,-0.8104,-0.8091,-0.8093,-0.8095,-0.8096,-0.8097,-0.8099,-0.8098,-0.8095,-0.8084,-0.8082,-0.8085,-0.8089,-0.8093,-0.8092,-0.8044,-0.8082,-0.8081,-0.8081,-0.8081,-0.8081,-0.8138,-0.8143,-0.8138,-0.814,-0.8137,-0.8135,-0.8139,-0.8133,-0.8134,-0.8134,-0.8127,-0.8131,-0.8126,-0.8124,-0.8122,-0.8125,-0.8118,-0.8122,-0.8124,-0.8125,-0.8127,-0.8092,-0.8125,-0.8125,-0.8125,-0.8125,-0.8125,0,-0.8175,-0.8171,-0.8172,-0.817,-0.8171,-0.8161,-0.8158,-0.816,-0.8164,-0.816,-0.8161,-0.8164,-0.8166,-0.8158,-0.8159,-0.8163,-0.8158,-0.8164,-0.8164,-0.8163,-0.8133,-0.8131,-0.8167,-0.8167,-0.8167,-0.8167,-0.8167,-0.8167,-0.8194,-0.8202,-0.8196,-0.8203,-0.8199,-0.8202,-0.8202,-0.8201,-0.8198,-0.8202,-0.8203,-0.8198,-0.8193,-0.8193,-0.8194,-0.8192,-0.8193,-0.82,-0.8197,-0.8169,-0.8165,-0.8161,-0.8159,-0.8201,-0.8201,-0.8226,-0.8226,-0.8227]},{"header":{"parameterUnit":"m.s-1","parameterCategory":1,"la1":30.2991,"la2":30.254,"lo1":-89.0895,"lo2":-89.0444,"dy":0.0017,"dx":0.0017,"nx":28,"ny":28,"refTime":"2025-11-23T09:00:00:Z","depth":0,"parameterNumber":3,"parameterNumberName":"V-component_of_WINDS"},"data":[0,0,0,0,0,0,0,0,0,0,0,0,0,0,0,0,0,0,0,0,0,0,0,0,0,0,0,0,0,0,0,0,0,0,0,0,0,0,0,0,0,0,0,0,0,0,0,0,0,0,0,0,0,0,0,0,0,0,-3.9995,-3.9995,0,-4.0051,-4.0052,-4.0052,-4.0018,-4.0017,-4.0015,-4.0014,-4.0066,-4.0069,-4.0072,0,0,0,0,0,0,0,0,0,0,0,0,0,-3.9854,-3.9857,-3.9995,-3.9995,-3.9996,-4.0051,-4.0052,-4.0052,-4.0019,-4.0017,-4.0015,-4.0013,-4.0065,-4.0069,-4.0072,0,0,0,0,0,0,0,0,0,0,0,0,0,-3.9913,-3.9857,-3.9994,-3.9986,-3.9986,-4.0051,-4.0052,-4.0053,-4.0019,-4.0017,-4.0014,-4.0012,-4.0064,-4.0069,-4.0073,-4.0148,0,0,-4.0086,-4.0088,0,0,0,0,0,0,0,0,-3.991,-3.9918,-3.9986,-3.9987,-3.9986,-4.0025,-4.0021,-4.0084,-4.002,-4.0006,-4.0013,-4.0011,-4.0054,-4.0059,-4.0075,-4.015,-4.0153,-4.0087,-4.0089,-4.0091,-4.0092,0,0,0,0,0,0,0,-3.9906,-3.9915,-4.0017,-3.9987,-3.9987,-3.9978,-3.9984,-4.0033,-4.0043,-4.0007,-4.0005,-4.0012,-4.0054,-4.0071,-4.0076,-4.0154,-4.0086,-4.009,-4.0093,-4.0095,-4.0295,-4.0298,0,0,0,0,0,0,-3.9903,-3.9912,-4.0015,-4.0018,-3.9941,-3.9982,-3.9989,-4.0015,-4.0042,-4.0044,-4.0014,-4.001,-4.0065,-4.0071,-4.0078,-4.0169,-4.0091,-4.0095,-4.0098,-4.0292,-4.0296,-4.0298,0,0,0,0,0,0,-3.99,-3.9912,-4.0013,-3.9965,-3.9977,-3.9987,-4.0017,-4.0017,-4.0035,-4.0048,-4.0049,-4.003,-4.0063,-4.0072,-4.0132,-4.017,-4.0097,-4.0101,-4.0289,-4.0293,-4.0297,-4.0351,0,0,0,0,0,0,-3.9896,-3.9911,-3.9941,-3.9966,-3.998,-4.0067,-4.002,-4.002,-4.0043,-4.0038,-4.0063,-4.0065,-4.0062,-4.0125,-4.0136,-4.0175,-4.0104,-4.0286,-4.0291,-4.0296,-4.0346,-4.0357,-4.0366,0,0,0,0,0,-3.9891,-3.9952,-3.9943,-3.9955,-4.0017,-4.0069,-4.0077,-4.0074,-4.0046,-4.0075,-4.0084,-4.0064,-4.0164,-4.0132,-4.0143,-4.0184,-4.0283,-4.0289,-4.0295,-4.0342,-4.0355,-4.0365,0,0,0,0,0,0,-3.9929,-3.9955,-3.9945,-4.0016,-4.0041,-4.0063,-4.01,-4.0087,-4.0119,-4.0113,-4.0106,-4.0112,-4.0175,-4.0185,-4.0148,-4.0259,-4.0219,-4.0228,-4.025,-4.0263,-4.0272,-4.0269,-4.0108,0,0,0,0,0,-3.9947,-3.9988,-4.0008,-4.0069,-4.0082,-4.0089,-4.0112,-4.0108,-4.0132,-4.0142,-4.0155,-4.0178,-4.0215,-4.0239,-4.0274,-4.0347,-4.0352,-4.0381,-4.0391,-4.0399,-4.0407,-4.0448,-4.0461,-4.0318,-4.0318,-4.0318,0,0,-3.9982,-4.0001,-4.0027,-4.0077,-4.0096,-4.0139,-4.0098,-4.0144,-4.0175,-4.0148,-4.0207,-4.0217,-4.0242,-4.031,-4.034,-4.0321,-4.0447,-4.0407,-4.0413,-4.0416,-4.0455,-4.0469,-4.0481,-4.0323,-4.0322,-4.0321,0,0,-4.0068,-4.0086,-4.014,-4.0161,-4.019,-4.0195,-4.0208,-4.0233,-4.0239,-4.0298,-4.0279,-4.0315,-4.0378,-4.0398,-4.0416,-4.0512,-4.0495,-4.0523,-4.0575,-4.0615,-4.0626,-4.0636,-4.0671,-4.0684,-4.0531,-4.0531,-4.0531,0,-4.0107,-4.0172,-4.0169,-4.0218,-4.0241,-4.022,-4.0275,-4.0293,-4.0332,-4.0348,-4.0325,-4.0406,-4.0422,-4.0494,-4.0518,-4.0533,-4.0548,-4.052,-4.0625,-4.0635,-4.0644,-4.0677,-4.0691,-4.0534,-4.0534,-4.0533,-4.0533,0,-4.022,-4.0265,-4.0305,-4.0346,-4.0373,-4.0424,-4.0428,-4.0455,-4.0449,-4.0455,-4.0516,-4.0534,-4.0573,-4.0589,-4.0582,-4.0662,-4.0649,-4.0626,-4.0586,-4.0661,-4.0692,-4.0705,-4.0539,-4.0538,-4.0537,-4.0536,0,0,-4.0331,-4.0371,-4.0386,-4.0405,-4.0437,-4.0471,-4.0521,-4.0561,-4.0586,-4.0613,-4.0655,-4.071,-4.0689,-4.071,-4.0705,-4.074,-4.0817,-4.0713,-4.0714,-4.0733,-4.0906,-4.0924,-4.0939,-4.0805,-4.0808,-4.081,-4.0904,0,-4.042,-4.051,-4.051,-4.0593,-4.0635,-4.0617,-4.066,-4.0684,-4.0692,-4.0728,-4.0735,-4.0775,-4.0744,-4.0757,-4.0791,-4.08,-4.0851,-4.0793,-4.0844,-4.0846,-4.0839,-4.0955,-4.0974,-4.1063,-4.0916,-4.0919,-4.092,0,-4.0536,-4.0571,-4.0658,-4.0686,-4.0704,-4.0743,-4.0781,-4.0815,-4.0842,-4.0845,-4.087,-4.086,-4.091,-4.0868,-4.0937,-4.0898,-4.0918,-4.0926,-4.0929,-4.0935,-4.0888,-4.0965,-4.1091,-4.1104,-4.0939,-4.0938,-4.0936,0,-4.0611,-4.0678,-4.074,-4.0757,-4.079,-4.0818,-4.0833,-4.0858,-4.0882,-4.0914,-4.093,-4.0967,-4.0987,-4.1015,-4.1015,-4.0985,-4.1086,-4.1043,-4.109,-4.109,-4.1112,-4.1111,-4.1244,-4.1124,-4.1124,-4.1123,-4.1123,0,-4.0711,-4.0765,-4.0774,-4.0812,-4.0873,-4.0872,-4.0931,-4.0943,-4.0965,-4.1005,-4.099,-4.1027,-4.1024,-4.1061,-4.1061,-4.112,-4.1128,-4.1132,-4.1132,-4.1134,-4.1134,-4.1148,-4.1142,-4.1127,-4.1126,-4.1125,-4.1125,0,-4.0804,-4.0812,-4.0879,-4.0906,-4.0914,-4.0958,-4.098,-4.1016,-4.1023,-4.1073,-4.1084,-4.1095,-4.1138,-4.1141,-4.119,-4.119,-4.1261,-4.1253,-4.1253,-4.1252,-4.1298,-4.1295,-4.1446,-4.1467,-4.1332,-4.1333,-4.1334,0,-4.0868,-4.091,-4.0943,-4.097,-4.0987,-4.1029,-4.1055,-4.1055,-4.1082,-4.1117,-4.1149,-4.1191,-4.1225,-4.1295,-4.1306,-4.1343,-4.1337,-4.1388,-4.1342,-4.1344,-4.1339,-4.1337,-4.1342,-4.1396,-4.1398,-4.1399,-4.14,0,-4.0982,-4.0984,-4.1023,-4.1064,-4.1096,-4.1128,-4.1157,-4.1179,-4.1182,-4.1214,-4.1259,-4.1286,-4.1337,-4.1379,-4.1417,-4.143,-4.1416,-4.1414,-4.1427,-4.1431,-4.143,-4.1432,-4.1278,-4.1411,-4.141,-4.1409,-4.1409,-4.1408,-4.1063,-4.11,-4.113,-4.1174,-4.1197,-4.1225,-4.1261,-4.1274,-4.1312,-4.1356,-4.1353,-4.1403,-4.1429,-4.1478,-4.1495,-4.1534,-4.1516,-4.1535,-4.1539,-4.1544,-4.155,-4.1423,-4.154,-4.154,-4.1539,-4.1539,-4.1539,0,-4.1177,-4.1196,-4.1236,-4.128,-4.1314,-4.13,-4.1332,-4.1362,-4.1407,-4.1434,-4.1468,-4.1521,-4.1562,-4.1577,-4.1617,-4.1645,-4.164,-4.1656,-4.1654,-4.1658,-4.1562,-4.1548,-4.166,-4.1659,-4.1659,-4.1659,-4.1659,-4.1659,-4.124,-4.1304,-4.131,-4.1384,-4.1401,-4.1453,-4.1473,-4.1499,-4.152,-4.158,-4.1615,-4.1626,-4.1648,-4.1689,-4.1726,-4.173,-4.1745,-4.1765,-4.1765,-4.1676,-4.1664,-4.1653,-4.1639,-4.1768,-4.1768,-4.1857,-4.1858,-4.1859]}]]